Flag for U.S.A. Weather past 2 weeks in Rochester, New York, U.S.A.

Now
59 °F

Mostly cloudy.


Feels Like: 59 °F
Forecast: 54 / 63 °F
Wind: 5 mph from South

Location: Greater Rochester International Airport

Current Time: Sep 15, 2014 at 9:50:30 PM

Latest Report: Sep 15, 2014 at 8:54 PM


Visibility: 10 mi

Pressure: 30.09 "Hg

Humidity: 75%

Dew point: 51 °F

Location of RochesterLocation

Historic Weather in Rochester — Graph

°F

Rochester temperature yesterday

Maximum temperature yesterday: 60 °F (at 12:54 PM)
Minimum temperature yesterday: 41 °F (at 6:54 AM)
Average temperature yesterday: 52 °F

Past Weeks' High & Low Weather Summary

 TemperatureHumidityPressure
High91 °F (Sep 5, 2:54 PM)97% (Sep 1, 2:54 AM)30.37 "Hg (Sep 1, 2:54 AM)
Low41 °F (Sep 14, 6:54 AM)39% (Sep 3, 3:54 PM)29.60 "Hg (Sep 11, 5:54 AM)
Average65 °F74%30.07 "Hg
* Reported Aug 31 8:54 PM — Sep 15 8:54 PM, Rochester, Weather by CustomWeather, © 2014

Note: Actual official high and low records may vary slightly from our data, if they occured in-between our weather recording intervals... More about our weather records

Advertising

Rochester weather history for previous 24 hours

 ConditionsComfort  
Time TempWeatherWind HumidityBarometerVisibility
8:54 PM
Sep 15
59 °FMostly cloudy.5 mph75%30.09 "Hg10 mi
7:54 PM59 °FMostly cloudy.No wind75%30.08 "Hg10 mi
6:54 PM60 °FMostly cloudy.3 mph69%30.09 "Hg10 mi
5:54 PM62 °FCloudy.5 mph62%30.10 "Hg10 mi
4:54 PM63 °FMostly cloudy.6 mph58%30.11 "Hg10 mi
3:54 PM66 °FMostly cloudy.7 mph52%30.11 "Hg10 mi
2:54 PM68 °FMostly cloudy.9 mph47%30.11 "Hg10 mi
1:54 PM67 °FBroken clouds.5 mph47%30.14 "Hg10 mi
12:54 PM66 °FBroken clouds.10 mph49%30.16 "Hg10 mi
11:54 AM64 °FPartly sunny.6 mph52%30.19 "Hg10 mi
10:54 AM62 °FPartly sunny.10 mph54%30.20 "Hg10 mi
9:54 AM60 °FScattered clouds.7 mph62%30.22 "Hg10 mi
8:54 AM55 °FPartly sunny.8 mph77%30.22 "Hg10 mi
7:54 AM51 °FBroken clouds.6 mph86%30.24 "Hg10 mi
6:54 AM50 °FPartly cloudy.6 mph86%30.24 "Hg10 mi
5:54 AM51 °FOvercast.5 mph86%30.22 "Hg10 mi
4:54 AM50 °FOvercast.3 mph86%30.23 "Hg10 mi
3:54 AM50 °FOvercast.3 mph89%30.23 "Hg10 mi
2:54 AM50 °FOvercast.No wind86%30.23 "Hg10 mi
1:54 AM51 °FPassing clouds.No wind80%30.24 "Hg10 mi
12:54 AM51 °FOvercast.No wind80%30.24 "Hg10 mi
11:54 PM
Sep 14
50 °FPassing clouds.No wind80%30.25 "Hg10 mi
10:54 PM52 °FPassing clouds.No wind72%30.25 "Hg10 mi
9:54 PM53 °FOvercast.3 mph69%30.26 "Hg10 mi
Weather by CustomWeather, © 2014

See weather overviewHow to use our weather pages